Year,Month,Day,Hour,Minute,Value (Times are PST for temperature in C)
2008,04,24,00,00,7.60
2008,04,24,00,01,7.60
2008,04,24,00,02,7.60
2008,04,24,00,03,7.60
2008,04,24,00,04,7.50
2008,04,24,00,05,7.50
2008,04,24,00,06,7.50
2008,04,24,00,07,7.40
2008,04,24,00,08,7.40
2008,04,24,00,09,7.40
2008,04,24,00,10,7.30
2008,04,24,00,11,7.30
2008,04,24,00,12,7.30
2008,04,24,00,13,7.30
2008,04,24,00,14,7.30
2008,04,24,00,15,7.30
2008,04,24,00,16,7.30
2008,04,24,00,17,7.30
2008,04,24,00,18,7.30
2008,04,24,00,19,7.30
2008,04,24,00,20,7.30
2008,04,24,00,21,7.30
2008,04,24,00,22,7.30
2008,04,24,00,23,7.30
2008,04,24,00,24,7.30
2008,04,24,00,25,7.30
2008,04,24,00,26,7.30
2008,04,24,00,27,7.30
2008,04,24,00,28,7.30
2008,04,24,00,29,7.30
2008,04,24,00,30,7.30
2008,04,24,00,31,7.30
2008,04,24,00,32,7.30
2008,04,24,00,33,7.30
2008,04,24,00,34,7.30
2008,04,24,00,35,7.30
2008,04,24,00,36,7.30
2008,04,24,00,37,7.30
2008,04,24,00,38,7.30
2008,04,24,00,39,7.30
2008,04,24,00,40,7.30
2008,04,24,00,41,7.30
2008,04,24,00,42,7.30
2008,04,24,00,43,7.30
2008,04,24,00,44,7.30
2008,04,24,00,45,7.30
2008,04,24,00,46,7.30
2008,04,24,00,47,7.30
2008,04,24,00,48,7.30
2008,04,24,00,49,7.30
2008,04,24,00,50,7.30
2008,04,24,00,51,7.30
2008,04,24,00,52,7.30
2008,04,24,00,53,7.30
2008,04,24,00,54,7.30
2008,04,24,00,55,7.30
2008,04,24,00,56,7.30
2008,04,24,00,57,7.30
2008,04,24,00,58,7.30
2008,04,24,00,59,7.30
2008,04,24,01,00,7.30
2008,04,24,01,01,7.30
2008,04,24,01,02,7.30
2008,04,24,01,03,7.30
2008,04,24,01,04,7.30
2008,04,24,01,05,7.30
2008,04,24,01,06,7.30
2008,04,24,01,07,7.30
2008,04,24,01,08,7.30
2008,04,24,01,09,7.30
2008,04,24,01,10,7.30
2008,04,24,01,11,7.30
2008,04,24,01,12,7.30
2008,04,24,01,13,7.30
2008,04,24,01,14,7.30
2008,04,24,01,15,7.30
2008,04,24,01,16,7.30
2008,04,24,01,17,7.30
2008,04,24,01,18,7.30
2008,04,24,01,19,7.30
2008,04,24,01,20,7.30
2008,04,24,01,21,7.30
2008,04,24,01,22,7.30
2008,04,24,01,23,7.30
2008,04,24,01,24,7.30
2008,04,24,01,25,7.30
2008,04,24,01,26,7.30
2008,04,24,01,27,7.30
2008,04,24,01,28,7.30
2008,04,24,01,29,7.30
2008,04,24,01,30,7.30
2008,04,24,01,31,7.30
2008,04,24,01,32,7.30
2008,04,24,01,33,7.30
2008,04,24,01,34,7.30
2008,04,24,01,35,7.30
2008,04,24,01,36,7.30
2008,04,24,01,37,7.30
2008,04,24,01,38,7.30
2008,04,24,01,39,7.30
2008,04,24,01,40,7.30
2008,04,24,01,41,7.30
2008,04,24,03,57,8.20
2008,04,24,03,58,8.20
2008,04,24,03,59,8.20
2008,04,24,04,00,8.20
2008,04,24,04,01,8.20
2008,04,24,04,02,8.20
2008,04,24,04,03,8.20
2008,04,24,04,04,8.20
2008,04,24,04,05,8.20
2008,04,24,04,06,8.20
2008,04,24,04,07,8.20
2008,04,24,04,08,8.20
2008,04,24,04,09,8.20
2008,04,24,04,10,8.20
2008,04,24,04,11,8.20
2008,04,24,04,12,8.30
2008,04,24,04,13,8.30
2008,04,24,04,14,8.30
2008,04,24,04,15,8.30
2008,04,24,04,16,8.30
2008,04,24,04,17,8.30
2008,04,24,04,18,8.30
2008,04,24,04,19,8.30
2008,04,24,04,20,8.30
2008,04,24,04,21,8.30
2008,04,24,04,22,8.30
2008,04,24,04,23,8.30
2008,04,24,04,24,8.30
2008,04,24,04,25,8.30
2008,04,24,04,26,8.30
2008,04,24,04,27,8.30
2008,04,24,04,28,8.30
2008,04,24,04,29,8.30
2008,04,24,04,30,8.30
2008,04,24,04,31,8.30
2008,04,24,04,32,8.30
2008,04,24,04,33,8.30
2008,04,24,04,34,8.30
2008,04,24,04,35,8.30
2008,04,24,04,36,8.30
2008,04,24,04,37,8.30
2008,04,24,04,38,8.30
2008,04,24,04,39,8.30
2008,04,24,04,40,8.30
2008,04,24,04,41,8.30
2008,04,24,04,42,8.30
2008,04,24,04,43,8.30
2008,04,24,04,44,8.30
2008,04,24,04,45,8.30
2008,04,24,04,46,8.20
2008,04,24,04,47,8.20
2008,04,24,04,48,8.20
2008,04,24,04,49,8.20
2008,04,24,04,50,8.20
2008,04,24,04,51,8.20
2008,04,24,04,52,8.20
2008,04,24,04,53,8.20
2008,04,24,04,54,8.20
2008,04,24,04,55,8.20
2008,04,24,04,56,8.20
2008,04,24,04,57,8.20
2008,04,24,04,58,8.20
2008,04,24,04,59,8.20
2008,04,24,05,00,8.20
2008,04,24,05,01,8.20
2008,04,24,05,02,8.20
2008,04,24,05,03,8.20
2008,04,24,05,04,8.20
2008,04,24,05,05,8.20
2008,04,24,05,06,8.20
2008,04,24,05,07,8.20
2008,04,24,05,08,8.20
2008,04,24,05,09,8.20
2008,04,24,05,10,8.20
2008,04,24,05,11,8.20
2008,04,24,05,12,8.20
2008,04,24,05,13,8.20
2008,04,24,05,14,8.20
2008,04,24,05,15,8.20
2008,04,24,05,16,8.20
2008,04,24,05,17,8.20
2008,04,24,05,18,8.20
2008,04,24,05,19,8.20
2008,04,24,05,20,8.20
2008,04,24,05,21,8.20
2008,04,24,05,22,8.20
2008,04,24,05,23,8.20
2008,04,24,05,24,8.20
2008,04,24,05,25,8.20
2008,04,24,05,26,8.20
2008,04,24,05,27,8.20
2008,04,24,05,28,8.20
2008,04,24,05,29,8.20
2008,04,24,05,30,8.20
2008,04,24,05,31,8.20
2008,04,24,05,32,8.20
2008,04,24,05,33,8.20
2008,04,24,05,34,8.20
2008,04,24,05,35,8.20
2008,04,24,05,36,8.20
2008,04,24,05,37,8.20
2008,04,24,05,38,8.20
2008,04,24,05,39,8.20
2008,04,24,05,40,8.20
2008,04,24,05,41,8.20
2008,04,24,05,42,8.20
2008,04,24,05,43,8.20
2008,04,24,05,44,8.20
2008,04,24,05,45,8.20
2008,04,24,05,46,8.20
2008,04,24,05,47,8.20
2008,04,24,05,48,8.20
2008,04,24,05,49,8.20
2008,04,24,05,50,8.20
2008,04,24,05,51,8.20
2008,04,24,05,52,8.20
2008,04,24,05,53,8.20
2008,04,24,05,54,8.20
2008,04,24,05,55,8.20
2008,04,24,05,56,8.20
2008,04,24,05,57,8.20
2008,04,24,05,58,8.20
2008,04,24,05,59,8.20
2008,04,24,06,00,8.10
2008,04,24,06,01,8.10
2008,04,24,06,02,8.10
2008,04,24,06,03,8.10
2008,04,24,06,04,8.10
2008,04,24,06,05,8.10
2008,04,24,06,06,8.10
2008,04,24,06,07,8.10
2008,04,24,06,08,8.10
2008,04,24,06,09,8.10
2008,04,24,06,10,8.10
2008,04,24,06,11,8.10
2008,04,24,06,12,8.10
2008,04,24,06,13,8.10
2008,04,24,06,14,8.10
2008,04,24,06,15,8.10
2008,04,24,06,16,8.10
2008,04,24,06,17,8.10
2008,04,24,07,07,7.90
2008,04,24,07,08,8.00
2008,04,24,07,09,8.00
2008,04,24,07,10,8.00
2008,04,24,07,11,8.00
2008,04,24,07,12,8.10
2008,04,24,07,13,8.10
2008,04,24,07,14,8.10
2008,04,24,07,15,8.10
2008,04,24,07,16,8.20
2008,04,24,07,17,8.20
2008,04,24,07,18,8.20
2008,04,24,07,19,8.20
2008,04,24,07,20,8.20
2008,04,24,07,21,8.20
2008,04,24,07,22,8.20
2008,04,24,07,23,8.20
2008,04,24,07,24,8.20
2008,04,24,07,25,8.20
2008,04,24,07,26,8.20
2008,04,24,07,27,8.20
2008,04,24,07,28,8.20
2008,04,24,07,29,8.20
2008,04,24,07,30,8.20
2008,04,24,07,31,8.20
2008,04,24,07,32,8.20
2008,04,24,07,33,8.20
2008,04,24,07,34,8.20
2008,04,24,07,35,8.20
2008,04,24,07,36,8.20
2008,04,24,07,37,8.20
2008,04,24,07,38,8.20
2008,04,24,07,39,8.20
2008,04,24,07,40,8.20
2008,04,24,07,41,8.20
2008,04,24,07,42,8.20
2008,04,24,07,43,8.20
2008,04,24,07,44,8.30
2008,04,24,07,45,8.30
2008,04,24,07,46,8.30
2008,04,24,07,47,8.30
2008,04,24,07,48,8.30
2008,04,24,07,49,8.30
2008,04,24,07,50,8.30
2008,04,24,07,51,8.40
2008,04,24,07,52,8.40
2008,04,24,07,53,8.40
2008,04,24,07,54,8.40
2008,04,24,07,55,8.40
2008,04,24,07,56,8.50
2008,04,24,07,57,8.50
2008,04,24,07,58,8.50
2008,04,24,07,59,8.50
2008,04,24,08,00,8.50
2008,04,24,08,01,8.50
2008,04,24,08,02,8.50
2008,04,24,08,03,8.50
2008,04,24,08,04,8.50
2008,04,24,08,05,8.50
2008,04,24,08,06,8.50
2008,04,24,08,07,8.50
2008,04,24,08,08,8.50
2008,04,24,08,09,8.50
2008,04,24,08,10,8.50
2008,04,24,08,11,8.50
2008,04,24,08,12,8.50
2008,04,24,08,13,8.50
2008,04,24,08,14,8.50
2008,04,24,08,15,8.50
2008,04,24,08,16,8.50
2008,04,24,08,17,8.50
2008,04,24,08,18,8.50
2008,04,24,08,19,8.50
2008,04,24,08,20,8.50
2008,04,24,08,21,8.50
2008,04,24,08,22,8.50
2008,04,24,08,23,8.50
2008,04,24,08,24,8.50
2008,04,24,08,25,8.50
2008,04,24,08,26,8.60
2008,04,24,08,27,8.60
2008,04,24,08,28,8.60
2008,04,24,08,29,8.60
2008,04,24,08,30,8.70
2008,04,24,08,31,8.70
2008,04,24,08,32,8.70
2008,04,24,08,33,8.70
2008,04,24,08,34,8.70
2008,04,24,08,35,8.70
2008,04,24,08,36,8.70
2008,04,24,08,37,8.70
2008,04,24,08,38,8.70
2008,04,24,08,39,8.70
2008,04,24,08,40,8.70
2008,04,24,08,41,8.70
2008,04,24,08,42,8.70
2008,04,24,08,43,8.70
2008,04,24,08,44,8.70
2008,04,24,08,45,8.80
2008,04,24,08,46,8.80
2008,04,24,08,47,8.80
2008,04,24,08,48,8.90
2008,04,24,08,49,8.90
2008,04,24,08,50,9.00
2008,04,24,08,51,9.00
2008,04,24,08,52,9.10
2008,04,24,08,53,9.10
2008,04,24,08,54,9.00
2008,04,24,08,55,9.00
2008,04,24,08,56,9.00
2008,04,24,08,57,9.10
2008,04,24,08,58,9.10
2008,04,24,08,59,9.10
2008,04,24,09,00,9.10
2008,04,24,09,01,9.10
2008,04,24,09,02,9.10
2008,04,24,09,03,9.10
2008,04,24,09,04,9.10
2008,04,24,09,05,9.20
2008,04,24,09,06,9.20
2008,04,24,09,07,9.20
2008,04,24,09,08,9.20
2008,04,24,09,09,9.20
2008,04,24,09,10,9.20
2008,04,24,09,11,9.20
2008,04,24,09,12,9.20
2008,04,24,09,13,9.20
2008,04,24,09,14,9.20
2008,04,24,09,15,9.20
2008,04,24,09,16,9.20
2008,04,24,09,17,9.20
2008,04,24,09,18,9.20
2008,04,24,09,19,9.10
2008,04,24,09,20,9.10
2008,04,24,09,21,9.00
2008,04,24,09,22,8.90
2008,04,24,09,23,8.90
2008,04,24,09,24,8.90
2008,04,24,09,25,8.80
2008,04,24,09,26,8.80
2008,04,24,09,27,8.80
2008,04,24,09,28,8.80
2008,04,24,09,29,8.80
2008,04,24,09,30,8.80
2008,04,24,09,31,8.80
2008,04,24,09,32,8.80
2008,04,24,09,33,8.80
2008,04,24,09,34,8.80
2008,04,24,09,35,8.90
2008,04,24,09,36,8.90
2008,04,24,09,37,8.90
2008,04,24,09,38,8.90
2008,04,24,09,39,9.00
2008,04,24,09,40,9.00
2008,04,24,09,41,9.00
2008,04,24,09,42,9.00
2008,04,24,09,43,9.00
2008,04,24,09,44,9.00
2008,04,24,09,45,9.10
2008,04,24,09,46,9.10
2008,04,24,09,47,9.20
2008,04,24,09,48,9.20
2008,04,24,09,49,9.20
2008,04,24,09,50,9.20
2008,04,24,09,51,9.20
2008,04,24,09,52,9.20
2008,04,24,09,53,9.20
2008,04,24,09,54,9.20
2008,04,24,09,55,9.20
2008,04,24,09,56,9.20
2008,04,24,09,57,9.20
2008,04,24,09,58,9.20
2008,04,24,09,59,9.20
2008,04,24,10,00,9.20
2008,04,24,10,01,9.20
2008,04,24,10,02,9.20
2008,04,24,10,03,9.20
2008,04,24,10,04,9.20
2008,04,24,10,05,9.20
2008,04,24,10,06,9.20
2008,04,24,10,07,9.20
2008,04,24,10,08,9.20
2008,04,24,10,09,9.30
2008,04,24,10,10,9.30
2008,04,24,10,11,9.30
2008,04,24,10,12,9.30
2008,04,24,10,13,9.30
2008,04,24,10,14,9.30
2008,04,24,10,15,9.30
2008,04,24,10,16,9.40
2008,04,24,10,17,9.40
2008,04,24,10,18,9.40
2008,04,24,10,19,9.40
2008,04,24,10,20,9.40
2008,04,24,10,21,9.40
2008,04,24,10,22,9.40
2008,04,24,10,23,9.50
2008,04,24,10,24,9.60
2008,04,24,10,25,9.60
2008,04,24,10,26,9.70
2008,04,24,10,27,9.70
2008,04,24,10,28,9.70
2008,04,24,10,29,9.70
2008,04,24,10,30,9.70
2008,04,24,10,31,9.70
2008,04,24,10,32,9.70
2008,04,24,10,33,9.80
2008,04,24,10,34,9.90
2008,04,24,10,35,9.90
2008,04,24,10,36,10.00
2008,04,24,10,37,10.10
2008,04,24,10,38,9.90
2008,04,24,10,39,9.90
2008,04,24,10,40,9.90
2008,04,24,10,41,9.90
2008,04,24,10,42,9.90
2008,04,24,10,43,10.00
2008,04,24,10,44,10.10
2008,04,24,10,45,10.10
2008,04,24,10,46,10.10
2008,04,24,10,47,10.10
2008,04,24,10,48,10.10
2008,04,24,10,49,10.10
2008,04,24,10,50,10.00
2008,04,24,10,51,9.90
2008,04,24,10,52,9.90
2008,04,24,10,53,9.90
2008,04,24,10,54,9.90
2008,04,24,10,55,9.90
2008,04,24,10,56,9.90
2008,04,24,10,57,9.90
2008,04,24,10,58,9.90
2008,04,24,10,59,9.90
2008,04,24,11,00,9.90
2008,04,24,11,01,9.90
2008,04,24,11,02,9.90
2008,04,24,11,34,10.70
2008,04,24,11,35,10.60
2008,04,24,11,36,10.60
2008,04,24,11,37,10.60
2008,04,24,11,38,10.60
2008,04,24,11,39,10.60
2008,04,24,11,40,10.60
2008,04,24,11,41,10.70
2008,04,24,11,42,10.70
2008,04,24,11,43,10.80
2008,04,24,11,44,10.80
2008,04,24,11,45,10.90
2008,04,24,11,46,10.90
2008,04,24,11,47,10.90
2008,04,24,11,48,11.00
2008,04,24,11,49,11.10
2008,04,24,11,50,11.10
2008,04,24,11,51,11.10
2008,04,24,11,52,11.10
2008,04,24,11,53,11.10
2008,04,24,11,54,11.10
2008,04,24,11,55,11.10
2008,04,24,11,56,11.10
2008,04,24,11,57,11.10
2008,04,24,11,58,11.10
2008,04,24,11,59,11.10
2008,04,24,12,00,11.10
2008,04,24,12,01,11.10
2008,04,24,12,02,11.10
2008,04,24,12,03,11.10
2008,04,24,12,04,11.10
2008,04,24,12,05,11.10
2008,04,24,12,06,11.10
2008,04,24,12,07,11.10
2008,04,24,12,08,11.10
2008,04,24,12,09,11.10
2008,04,24,12,10,11.10
2008,04,24,12,11,11.10
2008,04,24,13,18,9.70
2008,04,24,13,19,9.70
2008,04,24,13,20,9.70
2008,04,24,13,21,9.70
2008,04,24,13,22,9.70
2008,04,24,13,23,9.70
2008,04,24,13,24,9.70
2008,04,24,13,25,9.70
2008,04,24,13,26,9.70
2008,04,24,13,27,9.70
2008,04,24,13,28,9.70
2008,04,24,13,29,9.80
2008,04,24,13,30,9.90
2008,04,24,13,31,9.90
2008,04,24,13,32,9.90
2008,04,24,13,33,9.90
2008,04,24,13,34,9.90
2008,04,24,13,35,9.90
2008,04,24,13,36,10.00
2008,04,24,13,37,10.10
2008,04,24,13,38,10.10
2008,04,24,13,39,10.10
2008,04,24,13,40,10.10
2008,04,24,13,41,10.10
2008,04,24,13,42,10.10
2008,04,24,13,43,10.10
2008,04,24,13,44,10.10
2008,04,24,13,45,10.20
2008,04,24,13,46,10.20
2008,04,24,13,47,10.20
2008,04,24,13,48,10.20
2008,04,24,13,49,10.20
2008,04,24,13,50,10.10
2008,04,24,13,51,10.10
2008,04,24,13,52,10.10
2008,04,24,13,53,10.10
2008,04,24,13,54,10.10
2008,04,24,13,55,10.10
2008,04,24,13,56,10.20
2008,04,24,13,57,10.20
2008,04,24,13,58,10.30
2008,04,24,13,59,10.30
2008,04,24,14,00,10.40
2008,04,24,14,01,10.40
2008,04,24,14,02,10.40
2008,04,24,14,03,10.40
2008,04,24,14,04,10.40
2008,04,24,14,05,10.30
2008,04,24,14,06,10.30
2008,04,24,14,07,10.30
2008,04,24,14,08,10.30
2008,04,24,14,09,10.30
2008,04,24,14,10,10.40
2008,04,24,14,11,10.40
2008,04,24,14,12,10.50
2008,04,24,14,13,10.60
2008,04,24,14,14,10.60
2008,04,24,14,15,10.60
2008,04,24,14,16,10.60
2008,04,24,14,17,10.60
2008,04,24,14,18,10.60
2008,04,24,14,19,10.60
2008,04,24,14,20,10.60
2008,04,24,14,21,10.70
2008,04,24,14,22,10.70
2008,04,24,14,23,10.80
2008,04,24,14,24,10.80
2008,04,24,14,25,10.80
2008,04,24,14,26,10.90
2008,04,24,14,27,10.90
2008,04,24,14,28,10.90
2008,04,24,14,29,10.90
2008,04,24,14,30,10.80
2008,04,24,14,31,10.70
2008,04,24,14,32,10.70
2008,04,24,14,33,10.60
2008,04,24,14,34,10.60
2008,04,24,14,35,10.60
2008,04,24,14,36,10.60
2008,04,24,14,37,10.60
2008,04,24,14,38,10.60
2008,04,24,14,39,10.60
2008,04,24,14,40,10.60
2008,04,24,14,41,10.60
2008,04,24,14,42,10.70
2008,04,24,14,43,10.70
2008,04,24,14,44,10.70
2008,04,24,14,45,10.70
2008,04,24,14,46,10.70
2008,04,24,14,47,10.70
2008,04,24,14,48,10.70
2008,04,24,14,49,10.70
2008,04,24,14,50,10.90
2008,04,24,14,51,11.10
2008,04,24,14,52,11.10
2008,04,24,14,53,11.10
2008,04,24,14,54,11.10
2008,04,24,14,55,11.10
2008,04,24,14,56,11.10
2008,04,24,14,57,11.10
2008,04,24,14,58,11.10
2008,04,24,14,59,11.10
2008,04,24,15,00,11.10
2008,04,24,15,01,11.10
2008,04,24,15,02,11.10
2008,04,24,15,03,11.10
2008,04,24,15,04,11.10
2008,04,24,15,05,11.10
2008,04,24,15,06,11.00
2008,04,24,15,07,10.90
2008,04,24,15,08,10.90
2008,04,24,15,09,10.90
2008,04,24,15,10,10.90
2008,04,24,15,11,10.80
2008,04,24,15,12,10.70
2008,04,24,15,13,10.70
2008,04,24,15,14,10.60
2008,04,24,15,15,10.60
2008,04,24,15,16,10.60
2008,04,24,15,17,10.60
2008,04,24,15,18,10.60
2008,04,24,15,19,10.60
2008,04,24,15,20,10.60
2008,04,24,15,21,10.70
2008,04,24,15,22,10.60
2008,04,24,15,23,10.60
2008,04,24,15,24,10.60
2008,04,24,15,25,10.50
2008,04,24,15,26,10.40
2008,04,24,15,27,10.40
2008,04,24,15,28,10.40
2008,04,24,15,29,10.30
2008,04,24,15,30,10.30
2008,04,24,15,31,10.30
2008,04,24,15,32,10.40
2008,04,24,15,33,10.40
2008,04,24,15,34,10.40
2008,04,24,15,35,10.40
2008,04,24,15,36,10.30
2008,04,24,15,37,10.30
2008,04,24,15,38,10.20
2008,04,24,15,39,10.10
2008,04,24,15,40,10.10
2008,04,24,15,41,10.10
2008,04,24,15,42,10.10
2008,04,24,15,43,10.00
2008,04,24,15,44,9.90
2008,04,24,15,45,9.90
2008,04,24,15,46,9.90
2008,04,24,15,47,9.80
2008,04,24,15,48,9.70
2008,04,24,15,49,9.70
2008,04,24,15,50,9.70
2008,04,24,15,51,9.70
2008,04,24,15,52,9.70
2008,04,24,15,53,9.70
2008,04,24,15,54,9.70
2008,04,24,15,55,9.70
2008,04,24,15,56,9.70
2008,04,24,15,57,9.70
2008,04,24,15,58,9.70
2008,04,24,15,59,9.70
2008,04,24,16,00,9.70
2008,04,24,16,01,9.70
2008,04,24,16,02,9.70
2008,04,24,16,03,9.70
2008,04,24,16,04,9.70
2008,04,24,16,05,9.60
2008,04,24,16,06,9.60
2008,04,24,16,07,9.50
2008,04,24,16,08,9.40
2008,04,24,16,09,9.40
2008,04,24,16,10,9.30
2008,04,24,16,11,9.30
2008,04,24,16,12,9.20
2008,04,24,16,13,9.20
2008,04,24,16,14,9.20
2008,04,24,16,15,9.20
2008,04,24,16,16,9.20
2008,04,24,16,17,9.20
2008,04,24,16,18,9.20
2008,04,24,16,19,9.20
2008,04,24,16,20,9.20
2008,04,24,16,21,9.20
2008,04,24,16,22,9.20
2008,04,24,16,23,9.20
2008,04,24,16,24,9.20
2008,04,24,16,25,9.20
2008,04,24,16,26,9.20
2008,04,24,16,27,9.20
2008,04,24,16,28,9.20
2008,04,24,16,29,9.20
2008,04,24,16,30,9.20
2008,04,24,16,31,9.30
2008,04,24,16,32,9.40
2008,04,24,16,33,9.40
2008,04,24,16,34,9.40
2008,04,24,16,35,9.40
2008,04,24,16,36,9.40
2008,04,24,16,37,9.50
2008,04,24,16,38,9.50
2008,04,24,16,39,9.60
2008,04,24,16,40,9.60
2008,04,24,16,41,9.70
2008,04,24,16,42,9.70
2008,04,24,16,43,9.70
2008,04,24,16,44,9.70
2008,04,24,16,45,9.70
2008,04,24,16,46,9.70
2008,04,24,16,47,9.70
2008,04,24,16,48,9.70
2008,04,24,16,49,9.70
2008,04,24,16,50,9.70
2008,04,24,16,51,9.70
2008,04,24,16,52,9.70
2008,04,24,16,53,9.70
2008,04,24,16,54,9.80
2008,04,24,16,55,9.80
2008,04,24,16,56,9.80
2008,04,24,16,57,9.80
2008,04,24,16,58,9.80
2008,04,24,16,59,9.80
2008,04,24,17,00,9.70
2008,04,24,17,01,9.70
2008,04,24,17,02,9.70
2008,04,24,17,03,9.70
2008,04,24,17,04,9.70
2008,04,24,17,05,9.70
2008,04,24,17,06,9.70
2008,04,24,17,07,9.70
2008,04,24,17,08,9.70
2008,04,24,17,09,9.70
2008,04,24,17,10,9.60
2008,04,24,17,11,9.60
2008,04,24,17,12,9.50
2008,04,24,17,13,9.40
2008,04,24,17,14,9.40
2008,04,24,17,15,9.30
2008,04,24,17,16,9.30
2008,04,24,17,17,9.20
2008,04,24,17,18,9.20
2008,04,24,17,19,9.20
2008,04,24,17,20,9.20
2008,04,24,17,21,9.20
2008,04,24,17,22,9.20
2008,04,24,17,23,9.20
2008,04,24,17,24,9.20
2008,04,24,17,25,9.20
2008,04,24,17,26,9.20
2008,04,24,17,27,9.20
2008,04,24,17,28,9.20
2008,04,24,17,29,9.20
2008,04,24,17,30,9.20
2008,04,24,17,31,9.20
2008,04,24,17,32,9.20
2008,04,24,17,33,9.20
2008,04,24,17,34,9.20
2008,04,24,17,35,9.20
2008,04,24,17,36,9.20
2008,04,24,17,37,9.20
2008,04,24,17,38,9.20
2008,04,24,17,39,9.20
2008,04,24,17,40,9.20
2008,04,24,17,41,9.20
2008,04,24,17,42,9.20
2008,04,24,17,43,9.20
2008,04,24,17,44,9.20
2008,04,24,17,45,9.20
2008,04,24,17,46,9.20
2008,04,24,17,47,9.20
2008,04,24,17,48,9.20
2008,04,24,17,49,9.20
2008,04,24,17,50,9.20
2008,04,24,17,51,9.20
2008,04,24,17,52,9.20
2008,04,24,17,53,9.20
2008,04,24,17,54,9.20
2008,04,24,17,55,9.20
2008,04,24,17,56,9.20
2008,04,24,17,57,9.20
2008,04,24,17,58,9.20
2008,04,24,17,59,9.20
2008,04,24,18,00,9.20
2008,04,24,18,01,9.20
2008,04,24,18,02,9.20
2008,04,24,18,03,9.20
2008,04,24,18,04,9.20
2008,04,24,18,05,9.20
2008,04,24,18,06,9.20
2008,04,24,18,07,9.20
2008,04,24,18,08,9.20
2008,04,24,18,09,9.20
2008,04,24,18,10,9.20
2008,04,24,18,11,9.20
2008,04,24,18,12,9.20
2008,04,24,18,13,9.20
2008,04,24,18,14,9.20
2008,04,24,18,15,9.20
2008,04,24,18,16,9.20
2008,04,24,18,17,9.20
2008,04,24,18,18,9.10
2008,04,24,18,19,9.10
2008,04,24,18,20,9.10
2008,04,24,18,21,9.00
2008,04,24,18,22,9.00
2008,04,24,18,23,9.00
2008,04,24,18,24,8.90
2008,04,24,18,25,8.90
2008,04,24,18,26,8.90
2008,04,24,18,27,8.80
2008,04,24,18,28,8.80
2008,04,24,18,29,8.80
2008,04,24,18,30,8.80
2008,04,24,18,31,8.70
2008,04,24,18,32,8.70
2008,04,24,18,33,8.70
2008,04,24,18,34,8.60
2008,04,24,18,35,8.50
2008,04,24,18,36,8.40
2008,04,24,18,37,8.40
2008,04,24,18,38,8.40
2008,04,24,18,39,8.30
2008,04,24,18,40,8.30
2008,04,24,18,41,8.30
2008,04,24,18,42,8.30
2008,04,24,18,43,8.30
2008,04,24,18,44,8.30
2008,04,24,18,45,8.20
2008,04,24,18,46,8.20
2008,04,24,18,47,8.20
2008,04,24,18,48,8.20
2008,04,24,18,49,8.20
2008,04,24,18,50,8.10
2008,04,24,18,51,8.10
2008,04,24,18,52,8.10
2008,04,24,18,53,8.10
2008,04,24,18,54,8.00
2008,04,24,18,55,8.00
2008,04,24,18,56,8.00
2008,04,24,18,57,8.00
2008,04,24,18,58,8.00
2008,04,24,18,59,8.00
2008,04,24,19,00,8.00
2008,04,24,19,01,8.00
2008,04,24,19,02,7.90
2008,04,24,19,03,7.90
2008,04,24,19,04,7.90
2008,04,24,19,05,7.90
2008,04,24,19,06,7.90
2008,04,24,19,07,7.90
2008,04,24,19,08,7.90
2008,04,24,19,09,7.90
2008,04,24,19,10,7.90
2008,04,24,19,11,7.90
2008,04,24,19,12,7.90
2008,04,24,19,13,7.90
2008,04,24,19,14,7.90
2008,04,24,19,15,7.90
2008,04,24,19,16,7.90
2008,04,24,19,17,7.90
2008,04,24,19,18,7.80
2008,04,24,19,19,7.80
2008,04,24,19,20,7.80
2008,04,24,19,21,7.80
2008,04,24,19,22,7.80
2008,04,24,19,23,7.80
2008,04,24,19,24,7.80
2008,04,24,19,25,7.80
2008,04,24,19,26,7.80
2008,04,24,19,27,7.80
2008,04,24,19,28,7.70
2008,04,24,19,29,7.70
2008,04,24,19,30,7.70
2008,04,24,19,31,7.70
2008,04,24,19,32,7.70
2008,04,24,19,33,7.60
2008,04,24,19,34,7.60
2008,04,24,19,35,7.60
2008,04,24,19,36,7.60
2008,04,24,19,37,7.60
2008,04,24,19,38,7.60
2008,04,24,19,39,7.60
2008,04,24,19,40,7.70
2008,04,24,19,41,7.70
2008,04,24,19,42,7.70
2008,04,24,19,43,7.70
2008,04,24,19,44,7.60
2008,04,24,19,45,7.60
2008,04,24,19,46,7.60
2008,04,24,19,47,7.60
2008,04,24,19,48,7.60
2008,04,24,19,49,7.60
2008,04,24,19,50,7.70
2008,04,24,19,51,7.70
2008,04,24,19,52,7.70
2008,04,24,19,53,7.70
2008,04,24,19,54,7.70
2008,04,24,19,55,7.70
2008,04,24,19,56,7.70
2008,04,24,19,57,7.70
2008,04,24,19,58,7.70
2008,04,24,19,59,7.80
2008,04,24,20,00,7.80
2008,04,24,20,01,7.80
2008,04,24,20,02,7.80
2008,04,24,20,03,7.80
2008,04,24,20,04,7.80
2008,04,24,20,05,7.80
2008,04,24,20,06,7.80
2008,04,24,20,07,7.80
2008,04,24,20,08,7.80
2008,04,24,20,09,7.90
2008,04,24,20,10,7.90
2008,04,24,20,11,7.90
2008,04,24,20,12,7.90
2008,04,24,20,13,7.90
2008,04,24,20,14,7.90
2008,04,24,20,15,7.90
2008,04,24,20,16,7.90
2008,04,24,20,17,7.90
2008,04,24,20,18,7.90
2008,04,24,20,19,7.90
2008,04,24,20,20,7.90
2008,04,24,20,21,7.90
2008,04,24,20,22,7.90
2008,04,24,20,23,7.90
2008,04,24,20,24,7.90
2008,04,24,20,25,7.90
2008,04,24,20,26,7.90
2008,04,24,20,27,7.90
2008,04,24,20,28,7.90
2008,04,24,20,29,7.90
2008,04,24,20,30,7.90
2008,04,24,20,31,7.90
2008,04,24,20,32,7.90
2008,04,24,20,33,7.90
2008,04,24,20,34,7.90
2008,04,24,20,35,7.90
2008,04,24,20,36,7.90
2008,04,24,20,37,7.90
2008,04,24,20,38,7.90
2008,04,24,20,39,7.90
2008,04,24,20,40,7.90
2008,04,24,20,41,7.90
2008,04,24,20,42,7.90
2008,04,24,20,43,7.90
2008,04,24,20,44,7.90
2008,04,24,20,45,7.90
2008,04,24,20,46,7.90
2008,04,24,20,47,7.90
2008,04,24,20,48,7.90
2008,04,24,20,49,7.90
2008,04,24,20,50,7.90
2008,04,24,20,51,7.90
2008,04,24,20,52,7.90
2008,04,24,20,53,7.90
2008,04,24,20,54,7.90
2008,04,24,20,55,7.90
2008,04,24,20,56,7.90
2008,04,24,20,57,7.90
2008,04,24,20,58,7.90
2008,04,24,20,59,7.90
2008,04,24,21,00,7.90
2008,04,24,21,01,7.90
2008,04,24,21,02,7.90
2008,04,24,21,03,7.90
2008,04,24,21,04,7.90
2008,04,24,21,05,7.80
2008,04,24,21,06,7.80
2008,04,24,21,07,7.80
2008,04,24,21,08,7.80
2008,04,24,21,09,7.80
2008,04,24,21,10,7.80
2008,04,24,21,11,7.80
2008,04,24,21,12,7.80
2008,04,24,21,13,7.80
2008,04,24,21,14,7.80
2008,04,24,21,15,7.80
2008,04,24,21,16,7.80
2008,04,24,21,17,7.80
2008,04,24,21,18,7.80
2008,04,24,21,19,7.80
2008,04,24,21,20,7.80
2008,04,24,21,21,7.80
2008,04,24,21,22,7.80
2008,04,24,21,23,7.80
2008,04,24,21,24,7.80
2008,04,24,21,25,7.80
2008,04,24,21,26,7.80
2008,04,24,21,27,7.80
2008,04,24,21,28,7.80
2008,04,24,21,29,7.80
2008,04,24,21,30,7.80
2008,04,24,21,31,7.80
2008,04,24,21,32,7.80
2008,04,24,21,33,7.80
2008,04,24,21,34,7.80
2008,04,24,21,35,7.80
2008,04,24,21,36,7.80
2008,04,24,21,37,7.70
2008,04,24,21,38,7.70
2008,04,24,21,39,7.70
2008,04,24,21,40,7.70
2008,04,24,21,41,7.70
2008,04,24,21,42,7.70
2008,04,24,21,43,7.70
2008,04,24,21,44,7.70
2008,04,24,21,45,7.70
2008,04,24,21,46,7.70
2008,04,24,21,47,7.70
2008,04,24,21,48,7.70
2008,04,24,21,49,7.70
2008,04,24,21,50,7.70
2008,04,24,21,51,7.70
2008,04,24,21,52,7.70
2008,04,24,21,53,7.70
2008,04,24,21,54,7.70
2008,04,24,21,55,7.70
2008,04,24,21,56,7.70
2008,04,24,21,57,7.70
2008,04,24,21,58,7.70
2008,04,24,21,59,7.60
2008,04,24,22,00,7.60
2008,04,24,22,01,7.60
2008,04,24,22,02,7.70
2008,04,24,22,03,7.70
2008,04,24,22,04,7.70
2008,04,24,22,05,7.70
2008,04,24,22,06,7.70
2008,04,24,22,07,7.70
2008,04,24,22,08,7.70
2008,04,24,22,09,7.70
2008,04,24,22,10,7.70
2008,04,24,22,11,7.70
2008,04,24,22,12,7.70
2008,04,24,22,13,7.70
2008,04,24,22,14,7.70
2008,04,24,22,15,7.70
2008,04,24,22,16,7.70
2008,04,24,22,17,7.70
2008,04,24,22,18,7.70
2008,04,24,22,19,7.70
2008,04,24,22,20,7.70
2008,04,24,22,21,7.70
2008,04,24,22,22,7.70
2008,04,24,22,23,7.60
2008,04,24,22,24,7.60
2008,04,24,22,25,7.60
2008,04,24,22,26,7.60
2008,04,24,22,27,7.60
2008,04,24,22,28,7.60
2008,04,24,22,29,7.60
2008,04,24,22,30,7.60
2008,04,24,22,31,7.60
2008,04,24,22,32,7.60
2008,04,24,22,33,7.60
2008,04,24,22,34,7.60
2008,04,24,22,35,7.50
2008,04,24,22,36,7.50
2008,04,24,22,37,7.50
2008,04,24,22,38,7.50
2008,04,24,22,39,7.50